一网星座-0678星 (ONEWEB-0678)

导读

ONEWEB-0678是英国OneWeb公司低轨卫星互联网星座的组网卫星,于2023年5月20日发射入轨。作为OneWeb一期星座成员,单星重约147.5公斤,配备Ku/Ka波段多波束天线,总通信能力约7.5Gbps,依托霍尔效应推进系统维持轨道。该卫星承担全球宽带覆盖任务,服务偏远区域网络接入、航运与航空联网,助力OneWeb实现全球低轨互联网覆盖,与星链等系统共同推进全球卫星互联网络建设。

Basic Information
目录编号:
56714
目录名称:
ONEWEB-0678
国际标识:
2023-068E
轨道中心:
EARTH
卫星名称:
一网星座-0678星
卫星全名:
一网星座-0678星 (ONEWEB-0678)
卫星状态:
在轨 (已飞行1211 天)
发射日期:
2023-05-20 UTC
国别 :
英国 (GB)
星等 :
--
This satellite is enrolled in the Space Conjunction Data Service (SCDS) and the current flight risk assessment level is: No High Risk
Orbit Information
数据来源 国际轨道数据 AOE轨道数据
星历时间 2026-09-11T19:38:28+0800
18小时前
查看轨道信息
2026-09-06T07:00:00+0800
6天前
查看轨道信息
半长轴 7579.912km 7579.899km
偏心率 0.0002173 0.0002294
轨道倾角 87.898° 87.897°
近地点辐角 81.154° 80.778°
升交点赤经 241.991° 243.093°
平近点角 278.984° 39.943°
近地点 1200.127km 1200.023km
远地点 1203.423km 1203.501km
周期 109.460分钟 109.460分钟
每日圈数 13.155476 13.155509
Detailed Information
平衡模式:
三轴稳定
覆盖范围:
全球
运营商:
一网卫星公司
运营商所在国:
英国
制造商(研发单位):
一网卫星公司
制造商所在国:
英国
使用方式:
暂无
Satellite Introduction
OneWeb卫星网络由648颗重约125公斤的微型卫星组成,运行在1200公里的轨道上。 每颗卫星都能够提供至少每秒8千兆位的吞吐量,以使用其高吞吐量的Ku频段有效载荷为家庭和移动平台提供互联网接入。该卫星仍在工作。
2D Orbit Map
3D Orbit Map
Orbit Altitude Analysis Chart
Orbit Inclination Analysis Chart
Orbit Comprehensive Analysis Chart
View Comprehensive Chart
Miss Distance Evolution Trend with All Objects
Collision Probability Evolution Trend with All Objects